User: anonymous   Login
Location: Detroit
(42.3310°N, 83.0460°W)
Time: 17:29:55
(UTC-04:00)
Language:

A-11 Canister half - Orbit

View from above orbital plane
View from above orbital plane
View from above satellite
View from above satellite

Ground track
Ground track

The orbit data is extracted from the following two-line orbital elements,

1 00053U 60009E   24197.46271036  .00000013  00000-0  95958-3 0  9998
2 00053  47.2792 346.8524 0100492 161.2113 199.2424 12.17340585849945
Epoch (UTC): 15 July 2024 11:06:18
Eccentricity: 0.0100492
inclination: 47.2792°
perigee height: 1524 km
apogee height: 1684 km
right ascension of ascending node: 346.8524°
argument of perigee: 161.2113°
revolutions per day: 12.17340585
mean anomaly at epoch: 199.2424°
orbit number at epoch: 84994

The dashed part of the orbit path shows where the satellite is in the earth's shadow,  

DLR